IRIDIUM 23 [S]

Last updated on Fri Jul 15 2016 17:38:28 GMT+0000 (Coordinated Universal Time)

1 24906U 97043D 16197.05624918 .00000017 00000-0 -81894-6 0 9998 2 24906 86.3951 36.3802 0002247 81.2117 75.7023 14.34214656989514

Satellite not in orbit

IRIDIUM 23 [S]